User: anonymous   Login
Location: Unspecified
(0.0000°N, 0.0000°E)
Time: 01:46:21
(UTC+00:00)
Language:

NOSS 7 (E) - Orbit

View from above orbital plane
View from above orbital plane
View from above satellite
View from above satellite

Ground track
Ground track

The orbit data is extracted from the following two-line orbital elements,

1 16624U 86014E   18106.81769550 0.00000420  00000-0  34727-4 0    01
2 16624  63.3130 116.7145 0940528  55.2043 304.7957 13.45701863    02
Epoch (UTC): 16 April 2018 19:37:28
Eccentricity: 0.0940528
inclination: 63.3130°
perigee height: 386 km
apogee height: 1790 km
right ascension of ascending node: 116.7145°
argument of perigee: 55.2043°
revolutions per day: 13.45701863
mean anomaly at epoch: 304.7957°
orbit number at epoch: 0

The dashed part of the orbit path shows where the satellite is in the earth's shadow,  

DLR